{"data":{"norad_id":45686,"intl_designator":"2020-035AF","name":"STARLINK-1404","alt_names":[],"object_type":"PAYLOAD","status":"ACTIVE","operator":null,"country":"US","launch_date":"2020-06-04","launch_site_code":"AFETR","launch_vehicle":null,"mission":null,"orbit_class":"UNKNOWN","rcs_meters":null,"size_class":null,"mass_kg":null,"dimensions":null,"purposes":["comms"],"wikipedia_slug":null,"has_3d_model":false,"image_url":null,"decayed_at":null,"tle_current":{"epoch":"2026-09-20T04:25:54.897024Z","epoch_age_seconds":45363,"freshness":"FRESH","line1":"1 45686U 20035AF  26263.18466316  .00061980  00000+0  88017-3 0  9993","line2":"2 45686  53.1497 206.0811 0004964 102.4531 257.7037 15.55840314349033","mean_motion":15.55840314,"eccentricity":0.0004964,"inclination_deg":53.1497,"raan_deg":206.0811,"arg_perigee_deg":102.4531,"mean_anomaly_deg":257.7037,"bstar":0.00088017,"rev_number":34903,"period_min":92.554485639842,"perigee_km":396.34651600005,"apogee_km":403.07556353393,"semimajor_km":6777.848039767,"source":"CELESTRAK","updated_at":"2026-09-20T09:00:38.452670Z"}}}